Cloud_Cover
0 0 0 0 2 14 1 0 0 0 80 100 100 55 5 5 36 10 99 98 74 37 43 19 5 5 5 5 1 0 0 0 0 0 5 5 8 12 80 17 1 2 2 0 54 91 97 1 0
0 0 0 5 4 14 2 0 0 1 8 100 100 89 32 83 100 88 99 96 54 47 51 33 41 5 8 5 4 1 1 0 0 0 5 5 17 20 100 47 0 22 62 43 100 100 40 2 2
16 0 0 1 21 5 4 0 0 0 5 54 100 100 47 6 100 100 100 98 60 84 42 34 93 18 5 5 8 5 4 80 4 2 0 29 11 7 100 8 55 99 100 100 100 7 5 5 0
1 3 9 0 10 5 5 0 0 0 4 12 100 100 80 70 75 100 100 100 52 100 76 66 20 71 11 41 6 5 4 93 95 56 39 96 96 100 100 84 100 100 100 100 14 5 5 0 0
10 41 9 0 4 8 5 2 0 0 0 5 100 100 98 100 19 100 100 100 56 89 100 78 79 99 86 100 21 5 5 39 100 91 100 100 100 100 100 94 94 100 100 64 5 7 0 0 0
1 12 22 9 5 4 5 2 5 5 3 3 100 100 100 100 98 98 100 100 91 78 100 85 68 40 20 24 7 82 25 5 5 64 100 100 100 100 90 100 100 100 96 16 78 22 2 0 0
10 75 7 0 0 5 0 4 5 28 5 2 100 98 100 100 100 100 100 100 100 83 97 100 77 63 57 37 5 5 6 5 5 4 15 100 100 65 100 100 100 100 49 9 4 4 0 0 0
4 57 71 2 4 3 0 9 33 96 15 100 100 96 100 100 100 100 98 100 100 100 17 100 65 70 20 49 12 46 39 6 5 100 100 93 100 100 100 100 100 100 12 13 5 3 0 0 0
0 69 12 11 0 0 0 0 100 92 52 95 100 100 99 100 100 100 100 100 100 100 98 100 31 40 10 5 8 22 21 36 5 19 48 87 100 100 37 3 26 5 5 5 5 4 1 5 5
31 13 5 5 0 0 2 2 100 97 41 100 89 98 100 98 100 100 99 100 100 100 100 100 29 28 51 5 6 59 88 20 5 5 44 89 96 52 98 20 5 3 5 5 5 5 5 5 5
6 14 5 5 2 7 5 89 100 100 5 75 100 100 100 100 100 100 100 100 100 100 100 100 100 81 40 73 98 96 100 80 78 93 100 100 27 6 46 31 5 5 5 6 66 11 5 5 5
2 0 4 3 5 2 90 92 53 100 7 59 51 100 94 100 100 100 100 100 100 100 100 100 100 100 86 100 100 100 100 100 100 100 100 70 44 84 74 68 74 76 45 100 68 44 73 14 5
42 0 1 3 5 25 100 100 100 100 100 99 100 100 100 100 100 100 100 100 100 100 100 100 100 100 100 100 100 100 100 100 100 99 100 57 99 98 100 100 100 100 100 100 100 100 100 98 35
72 75 39 38 5 98 100 98 94 100 100 100 98 100 100 100 100 100 100 100 100 100 100 100 100 100 100 100 100 100 100 100 100 100 99 99 100 100 100 100 100 100 100 100 100 100 100 57 28
100 100 100 67 3 95 100 100 98 100 100 100 100 100 100 100 100 100 100 100 100 100 100 100 100 100 100 100 100 100 100 100 100 100 100 100 100 98 100 84 100 100 97 78 6 22 99 100 99
100 100 100 5 1 24 16 19 99 100 100 100 100 100 68 96 100 100 100 100 100 100 100 100 100 100 70 100 100 100 100 98 100 100 100 100 100 100 100 100 100 100 80 61 100 95 79 90 100
92 100 100 88 94 100 98 84 100 98 5 100 100 100 100 88 100 100 100 100 100 100 100 100 100 100 100 100 100 100 100 100 100 100 100 100 100 93 100 99 100 92 66 46 55 77 36 98 67
38 100 100 100 97 100 100 100 100 91 75 100 100 100 100 100 100 100 100 100 100 100 100 100 100 100 100 100 100 100 100 100 100 100 100 100 100 100 100 94 100 93 94 90 18 99 100 100 100
96 100 100 100 100 100 100 100 100 100 85 100 100 100 100 100 100 100 100 100 100 100 100 100 100 100 100 100 100 100 100 100 100 97 100 100 100 100 100 100 89 100 97 88 100 100 89 72 38
100 100 100 100 100 100 100 100 100 85 100 100 100 100 100 100 100 100 100 100 100 100 100 100 100 100 100 100 100 100 100 100 100 100 100 100 100 100 94 100 99 100 91 64 84 100 55 26 18
100 100 100 100 100 100 100 100 100 89 100 100 100 100 100 100 100 100 100 100 100 100 100 100 100 100 100 100 100 100 100 100 100 100 100 100 100 100 100 100 100 100 100 100 100 91 95 61 100
99 100 100 100 100 100 100 100 100 85 100 100 100 100 100 100 100 100 100 100 100 100 100 100 100 100 100 100 100 100 100 100 100 100 100 100 100 100 100 100 100 100 100 97 100 100 100 66 78
100 100 100 100 100 100 100 100 100 99 100 100 100 100 100 100 100 100 100 100 100 100 100 100 100 100 100 100 100 100 100 100 100 100 100 100 100 100 100 100 100 100 100 100 100 100 100 100 100
100 100 100 100 100 100 100 100 100 100 100 100 100 100 100 100 100 100 100 100 100 100 100 100 100 100 100 98 100 100 100 100 100 100 100 100 100 100 100 100 100 100 100 100 100 100 100 100 100
100 100 100 95 100 100 100 100 100 100 86 88 100 100 100 100 100 100 100 100 100 100 100 100 100 100 100 95 100 100 100 100 100 100 100 100 100 100 100 100 100 100 100 100 100 100 100 100 100
100 100 100 98 97 100 100 80 87 49 100 92 100 100 100 100 100 100 100 100 100 100 100 100 100 100 100 100 100 100 100 100 100 100 100 100 100 100 100 100 100 100 100 100 100 100 100 100 100
100 100 100 100 100 100 100 100 100 66 90 100 100 100 100 100 100 100 100 98 100 100 100 100 100 100 100 100 100 100 100 100 100 100 100 100 100 100 100 100 100 100 100 100 100 100 100 100 100
100 95 97 100 100 100 100 100 98 100 100 100 100 100 100 100 100 100 100 100 98 100 100 100 100 100 96 96 100 100 100 100 100 100 100 100 100 100 100 100 100 100 100 100 100 100 99 100 100
90 99 33 12 31 100 100 79 100 100 100 100 100 100 100 100 100 100 100 100 100 100 100 100 100 100 100 85 87 100 100 100 100 100 100 100 100 100 100 100 100 100 100 100 100 100 100 100 100
100 100 100 100 100 6 80 89 100 100 79 100 100 100 97 99 100 100 100 100 100 100 100 100 100 100 100 100 98 100 100 100 100 100 100 100 100 100 100 100 100 100 100 100 100 100 100 100 100